[[{"header":{"parameterUnit":"m.s-1","parameterCategory":1,"la1":30.2991,"la2":30.254,"lo1":-89.0895,"lo2":-89.0444,"dy":0.0017,"dx":0.0017,"nx":28,"ny":28,"refTime":"2024-07-22T03:00:00:Z","depth":0,"parameterNumber":2,"parameterNumberName":"U-component_of_WINDS"},"data":[0,0,0,0,0,0,0,0,0,0,0,0,0,0,0,0,0,0,0,0,0,0,0,0,0,0,0,0,0,0,0,0,0,0,0,0,0,0,0,0,0,0,0,0,0,0,0,0,0,0,0,0,0,0,0,0,0,0,1.4175,1.4176,0,1.4215,1.4216,1.4216,1.4211,1.4211,1.421,1.4209,1.4254,1.4256,1.4258,0,0,0,0,0,0,0,0,0,0,0,0,0,1.4095,1.4097,1.4175,1.4176,1.4176,1.4215,1.4216,1.4217,1.4211,1.4211,1.421,1.4209,1.4254,1.4256,1.4258,0,0,0,0,0,0,0,0,0,0,0,0,0,1.4132,1.4097,1.4175,1.4178,1.4179,1.4215,1.4216,1.4217,1.4212,1.4211,1.421,1.4209,1.4253,1.4256,1.4258,1.4295,0,0,1.4267,1.4268,0,0,0,0,0,0,0,0,1.413,1.4135,1.4177,1.4178,1.4179,1.4207,1.4204,1.4243,1.4212,1.4199,1.4209,1.4208,1.424,1.4243,1.4253,1.4297,1.4299,1.4267,1.4269,1.427,1.4271,0,0,0,0,0,0,0,1.4128,1.4134,1.4191,1.4178,1.4179,1.4178,1.4182,1.4212,1.4225,1.42,1.42,1.4205,1.424,1.4251,1.4254,1.43,1.4267,1.4269,1.4271,1.4272,1.4375,1.4376,0,0,0,0,0,0,1.4124,1.4131,1.419,1.4192,1.4151,1.418,1.4185,1.4199,1.4224,1.4227,1.4205,1.4204,1.4247,1.4251,1.4256,1.43,1.427,1.4272,1.4274,1.4374,1.4375,1.4376,0,0,0,0,0,0,1.4122,1.4129,1.4188,1.4162,1.4169,1.4183,1.4199,1.4201,1.4211,1.4228,1.4231,1.4214,1.4246,1.4252,1.4285,1.4301,1.4274,1.4276,1.4372,1.4374,1.4376,1.4388,0,0,0,0,0,0,1.412,1.4129,1.4143,1.4162,1.4171,1.4216,1.42,1.4202,1.4216,1.4214,1.4237,1.424,1.4246,1.4281,1.4288,1.4304,1.4278,1.4371,1.4373,1.4375,1.4386,1.439,1.4393,0,0,0,0,0,1.4117,1.4146,1.4143,1.415,1.4188,1.4217,1.4222,1.4227,1.4217,1.4231,1.4242,1.4239,1.4298,1.4284,1.4292,1.431,1.437,1.4373,1.4375,1.4385,1.4389,1.4393,0,0,0,0,0,0,1.4129,1.4148,1.4146,1.4181,1.4197,1.4216,1.4234,1.4232,1.4252,1.425,1.4257,1.4262,1.4295,1.4306,1.429,1.4346,1.4333,1.4337,1.4338,1.4342,1.4345,1.4342,1.428,0,0,0,0,0,1.4136,1.4157,1.4173,1.4202,1.421,1.4221,1.4234,1.4236,1.4253,1.426,1.4274,1.4291,1.4314,1.4329,1.435,1.4388,1.4392,1.4404,1.4407,1.441,1.4413,1.4432,1.4437,1.4384,1.4384,1.4384,0,0,1.415,1.4163,1.4176,1.4205,1.4218,1.4239,1.4227,1.4251,1.4267,1.4265,1.4296,1.4306,1.4326,1.4361,1.4377,1.4371,1.4429,1.4413,1.4415,1.4417,1.4435,1.444,1.4445,1.4386,1.4386,1.4385,0,0,1.4187,1.4199,1.4224,1.4237,1.4255,1.4262,1.4268,1.4286,1.4292,1.4323,1.4321,1.4341,1.438,1.4394,1.4406,1.4446,1.4444,1.4453,1.4471,1.4489,1.4493,1.4497,1.451,1.4515,1.4456,1.4456,1.4457,0,1.4202,1.4234,1.4238,1.4261,1.4274,1.4271,1.4296,1.4309,1.4334,1.4343,1.4335,1.4383,1.4396,1.4433,1.4443,1.4453,1.446,1.4451,1.4492,1.4496,1.45,1.4512,1.4517,1.4457,1.4457,1.4457,1.4457,0,1.4252,1.4274,1.4293,1.4315,1.433,1.4354,1.4362,1.4376,1.4377,1.4384,1.4415,1.4431,1.4455,1.4464,1.4466,1.4501,1.4496,1.4491,1.4478,1.4505,1.4517,1.4522,1.4459,1.4458,1.4458,1.4458,0,0,1.4298,1.4321,1.4328,1.4337,1.4357,1.4374,1.4398,1.442,1.4432,1.445,1.447,1.4502,1.4495,1.4509,1.4513,1.4529,1.4558,1.4521,1.4521,1.4526,1.4596,1.46,1.4605,1.4556,1.4557,1.4558,1.4594,0,1.4336,1.4378,1.4381,1.4419,1.4439,1.4435,1.4456,1.447,1.4477,1.4496,1.4504,1.4526,1.4517,1.4525,1.4541,1.4551,1.4572,1.4548,1.4575,1.4576,1.457,1.4612,1.4616,1.4649,1.4599,1.46,1.46,0,1.4386,1.4403,1.4442,1.4457,1.4466,1.4484,1.4504,1.4522,1.4538,1.4541,1.4556,1.4556,1.4581,1.4567,1.4601,1.4584,1.4596,1.4602,1.4603,1.4606,1.459,1.4615,1.466,1.4665,1.4608,1.4607,1.4607,0,1.4415,1.4447,1.4475,1.4483,1.4502,1.4514,1.4523,1.4538,1.455,1.4568,1.4575,1.4596,1.4607,1.4623,1.4629,1.4618,1.4662,1.4649,1.4666,1.4666,1.4676,1.4675,1.4723,1.4684,1.4684,1.4684,1.4684,0,1.4457,1.4481,1.4487,1.4504,1.453,1.4534,1.456,1.4568,1.4581,1.4599,1.4598,1.4615,1.4622,1.464,1.4645,1.4672,1.4677,1.4681,1.4682,1.4681,1.468,1.4688,1.4686,1.4685,1.4685,1.4685,1.4684,0,1.4493,1.4499,1.4528,1.4542,1.4546,1.4565,1.4578,1.4594,1.46,1.4623,1.4628,1.4638,1.466,1.4667,1.4694,1.4697,1.4727,1.4727,1.4721,1.4721,1.4738,1.4736,1.4792,1.4799,1.4756,1.4757,1.4757,0,1.4519,1.4537,1.4553,1.4564,1.4572,1.4591,1.4603,1.4607,1.462,1.4638,1.4652,1.4673,1.4689,1.4724,1.4734,1.4753,1.4753,1.4771,1.4756,1.4754,1.4752,1.475,1.4752,1.4774,1.4774,1.4775,1.4775,0,1.4564,1.4565,1.4582,1.46,1.4614,1.4628,1.4642,1.4652,1.4657,1.4672,1.4692,1.4705,1.4731,1.4751,1.4771,1.4781,1.4779,1.478,1.4784,1.4783,1.4779,1.478,1.4728,1.4778,1.4778,1.4778,1.4778,1.4778,1.4596,1.4611,1.4623,1.4642,1.4652,1.4665,1.468,1.4687,1.4704,1.4724,1.4726,1.4748,1.4762,1.4789,1.4799,1.4816,1.4811,1.4819,1.482,1.4822,1.4822,1.4776,1.482,1.482,1.482,1.482,1.482,0,1.464,1.4647,1.4664,1.4682,1.4697,1.4692,1.4707,1.4719,1.4739,1.4752,1.4767,1.4791,1.481,1.4821,1.484,1.4852,1.4852,1.4857,1.4856,1.4858,1.4827,1.482,1.4857,1.4857,1.4857,1.4857,1.4857,1.4857,1.4664,1.4689,1.4692,1.4721,1.4729,1.475,1.4758,1.477,1.478,1.4805,1.4821,1.4827,1.4839,1.4859,1.4876,1.4879,1.4886,1.4891,1.4893,1.4864,1.486,1.4857,1.485,1.4893,1.4893,1.4923,1.4923,1.4923]},{"header":{"parameterUnit":"m.s-1","parameterCategory":1,"la1":30.2991,"la2":30.254,"lo1":-89.0895,"lo2":-89.0444,"dy":0.0017,"dx":0.0017,"nx":28,"ny":28,"refTime":"2024-07-22T03:00:00:Z","depth":0,"parameterNumber":3,"parameterNumberName":"V-component_of_WINDS"},"data":[0,0,0,0,0,0,0,0,0,0,0,0,0,0,0,0,0,0,0,0,0,0,0,0,0,0,0,0,0,0,0,0,0,0,0,0,0,0,0,0,0,0,0,0,0,0,0,0,0,0,0,0,0,0,0,0,0,0,3.7327,3.7326,0,3.729,3.729,3.7289,3.7295,3.7295,3.7296,3.7297,3.7253,3.7251,3.7249,0,0,0,0,0,0,0,0,0,0,0,0,0,3.7395,3.7394,3.7327,3.7326,3.7326,3.729,3.729,3.7289,3.7295,3.7295,3.7296,3.7297,3.7253,3.7251,3.7249,0,0,0,0,0,0,0,0,0,0,0,0,0,3.7362,3.7393,3.7327,3.7324,3.7324,3.729,3.729,3.7289,3.7294,3.7295,3.7296,3.7297,3.7254,3.7252,3.7249,3.7214,0,0,3.7241,3.724,0,0,0,0,0,0,0,0,3.7364,3.736,3.7325,3.7324,3.7324,3.7298,3.7298,3.7263,3.7294,3.7305,3.7297,3.7298,3.7267,3.7263,3.7254,3.7211,3.721,3.7241,3.7239,3.7238,3.7237,0,0,0,0,0,0,0,3.7366,3.7361,3.7312,3.7325,3.7324,3.7323,3.7319,3.7291,3.7281,3.7304,3.7305,3.7301,3.7266,3.7256,3.7253,3.7209,3.7241,3.7238,3.7237,3.7236,3.7133,3.7132,0,0,0,0,0,0,3.737,3.7363,3.7313,3.7311,3.7347,3.7321,3.7317,3.7305,3.7281,3.7279,3.73,3.7301,3.726,3.7256,3.7251,3.7207,3.7238,3.7235,3.7234,3.7134,3.7133,3.7131,0,0,0,0,0,0,3.7372,3.7366,3.7315,3.7337,3.7331,3.7319,3.7305,3.7304,3.7294,3.7278,3.7275,3.7292,3.7261,3.7255,3.7223,3.7205,3.7234,3.7232,3.7135,3.7134,3.7132,3.7118,0,0,0,0,0,0,3.7374,3.7366,3.7354,3.7337,3.7329,3.7289,3.7305,3.7303,3.729,3.7291,3.727,3.7267,3.7261,3.7227,3.722,3.7202,3.723,3.7137,3.7135,3.7133,3.712,3.7116,3.7112,0,0,0,0,0,3.7376,3.7351,3.7354,3.7348,3.7315,3.7288,3.7283,3.7279,3.7289,3.7275,3.7265,3.7268,3.7209,3.7223,3.7216,3.7197,3.7138,3.7135,3.7133,3.7121,3.7117,3.7112,0,0,0,0,0,0,3.7364,3.7349,3.7351,3.732,3.7306,3.7289,3.7272,3.7274,3.7255,3.7256,3.725,3.7245,3.7212,3.7201,3.7218,3.716,3.7174,3.717,3.7168,3.7163,3.716,3.7162,3.7228,0,0,0,0,0,3.7359,3.734,3.7327,3.73,3.7293,3.7284,3.7272,3.727,3.7253,3.7246,3.7234,3.7216,3.7193,3.7178,3.7156,3.7119,3.7112,3.7102,3.7098,3.7095,3.7091,3.7068,3.7062,3.7123,3.7123,3.7123,0,0,3.7346,3.7335,3.7323,3.7298,3.7286,3.7265,3.7278,3.7256,3.7239,3.7242,3.7211,3.7201,3.718,3.7145,3.7128,3.7135,3.7073,3.7092,3.709,3.7087,3.7065,3.7059,3.7054,3.7121,3.7121,3.7122,0,0,3.7311,3.7302,3.7279,3.7267,3.7249,3.7243,3.7238,3.722,3.7214,3.7183,3.7185,3.7164,3.7125,3.711,3.7097,3.7056,3.7056,3.7049,3.7029,3.7006,3.7001,3.6997,3.698,3.6974,3.7045,3.7045,3.7045,0,3.7297,3.7267,3.7265,3.7242,3.723,3.7234,3.7208,3.7196,3.7172,3.7162,3.7171,3.7121,3.7108,3.7068,3.7058,3.7048,3.7039,3.705,3.7003,3.6998,3.6994,3.6978,3.6972,3.7044,3.7044,3.7044,3.7044,0,3.7249,3.7228,3.721,3.7189,3.7174,3.715,3.7143,3.7128,3.7127,3.7119,3.7086,3.707,3.7044,3.7035,3.7033,3.6994,3.6998,3.7005,3.7018,3.6987,3.6972,3.6966,3.7042,3.7043,3.7043,3.7043,0,0,3.7205,3.7183,3.7176,3.7166,3.7147,3.7129,3.7104,3.7081,3.7067,3.705,3.7027,3.6994,3.6999,3.6985,3.6981,3.6962,3.6927,3.697,3.697,3.6961,3.6879,3.6873,3.6866,3.6928,3.6927,3.6926,3.688,0,3.7167,3.7125,3.7123,3.7083,3.7062,3.7066,3.7043,3.7028,3.702,3.6999,3.6989,3.6965,3.6976,3.6967,3.6948,3.6936,3.691,3.6939,3.6904,3.6903,3.6907,3.6858,3.6852,3.681,3.6875,3.6874,3.6873,0,3.7117,3.71,3.7059,3.7042,3.7033,3.7013,3.699,3.6972,3.6953,3.6948,3.6932,3.6931,3.6902,3.6918,3.6877,3.6896,3.6882,3.6873,3.6872,3.6866,3.6885,3.685,3.6796,3.6789,3.6864,3.6864,3.6865,0,3.7087,3.7053,3.7024,3.7015,3.6995,3.698,3.6971,3.6953,3.6939,3.6918,3.6908,3.6884,3.687,3.685,3.6842,3.6855,3.68,3.6816,3.6792,3.6792,3.6779,3.678,3.672,3.6773,3.6774,3.6774,3.6774,0,3.7044,3.7018,3.701,3.6992,3.6962,3.6959,3.6929,3.6919,3.6904,3.6882,3.6883,3.6862,3.6853,3.6829,3.6822,3.6787,3.6781,3.6775,3.6773,3.6773,3.6774,3.6762,3.6764,3.6772,3.6772,3.6773,3.6773,0,3.7004,3.6998,3.6966,3.695,3.6945,3.6924,3.6908,3.6889,3.6882,3.6854,3.6847,3.6834,3.6806,3.6796,3.6762,3.6757,3.6716,3.6717,3.6723,3.6722,3.6698,3.6699,3.6627,3.6616,3.6679,3.6678,3.6678,0,3.6976,3.6956,3.6938,3.6924,3.6915,3.6893,3.6878,3.6873,3.6858,3.6835,3.6817,3.6791,3.6769,3.6724,3.6709,3.6683,3.6682,3.6659,3.6678,3.6679,3.6679,3.6679,3.6676,3.6654,3.6654,3.6653,3.6653,0,3.6926,3.6924,3.6904,3.6883,3.6866,3.6849,3.6831,3.682,3.6812,3.6794,3.6767,3.675,3.6715,3.6687,3.666,3.6647,3.6647,3.6647,3.664,3.6639,3.6642,3.6638,3.671,3.6648,3.6649,3.6649,3.6649,3.6649,3.6889,3.6871,3.6856,3.6833,3.682,3.6804,3.6785,3.6775,3.6753,3.6726,3.6724,3.6694,3.6673,3.6637,3.6623,3.6597,3.6603,3.6593,3.659,3.6587,3.6584,3.6648,3.6592,3.6593,3.6593,3.6593,3.6593,0,3.6837,3.6827,3.6807,3.6784,3.6765,3.677,3.6751,3.6734,3.6709,3.6691,3.667,3.6637,3.6609,3.6593,3.6565,3.6547,3.6547,3.654,3.654,3.6536,3.6582,3.659,3.6541,3.6541,3.6541,3.6541,3.6541,3.6541,3.6808,3.6777,3.6773,3.6735,3.6725,3.6697,3.6685,3.6669,3.6655,3.6619,3.6597,3.6588,3.6569,3.654,3.6514,3.6509,3.6498,3.649,3.6486,3.6528,3.6533,3.6538,3.6546,3.6488,3.6488,3.6442,3.6441,3.6441]}]]